DW7251 Weather Reports


Display with metric or nautical units.
time (UTC)temp
F
wind
direction
speed
MPH
gust
MPH
rain 1hr
in
rain 24hr
in
rain mn
in
humidity
%
barometer
mb
20180527135019 62 17 1.0 5.0 0.00 0.00 0.00 68 1021.4
20180527133958 62 8 1.0 5.0 0.00 0.00 0.00 68 1021.5
20180527133507 62 60 1.0 5.0 0.00 0.00 0.00 68 1021.5
20180527132950 62 69 1.0 5.0 0.00 0.00 0.00 69 1021.6
20180527132430 62 12 1.0 5.0 0.00 0.00 0.00 69 1021.6
20180527131911 62 28 2.0 7.0 0.00 0.00 0.00 68 1021.6
20180527131410 62 22 2.0 7.0 0.00 0.00 0.00 68 1021.6
20180527130859 62 60 2.0 7.0 0.00 0.00 0.00 68 1021.6
20180527130352 62 8 2.0 7.0 0.00 0.00 0.00 68 1021.5
20180527125841 62 28 2.0 6.0 0.00 0.00 0.00 68 1021.5
20180527125349 62 28 2.0 7.0 0.00 0.00 0.00 68 1021.6
20180527124832 62 60 3.0 7.0 0.00 0.00 0.00 68 1021.6
20180527124320 62 3 2.0 8.0 0.00 0.00 0.00 68 1021.7
20180527123806 62 42 3.0 8.0 0.00 0.00 0.00 68 1021.5
20180527123247 62 38 3.0 9.0 0.00 0.00 0.00 68 1021.6
20180527122739 63 50 3.0 9.0 0.00 0.00 0.00 67 1021.6
20180527122244 63 48 2.0 9.0 0.00 0.00 0.00 67 1021.5
20180527121747 63 50 2.0 9.0 0.00 0.00 0.00 66 1021.5
20180527121244 63 8 3.0 9.0 0.00 0.00 0.00 66 1021.6
20180527120751 63 23 4.0 9.0 0.00 0.00 0.00 66 1021.6
20180527120252 63 45 4.0 9.0 0.00 0.00 0.00 66 1021.6
20180527115750 63 55 3.0 9.0 0.00 0.00 0.00 66 1021.5
20180527115249 63 55 4.0 9.0 0.00 0.00 0.00 66 1021.5
20180527114741 63 74 4.0 9.0 0.00 0.00 0.00 66 1021.6
20180527114245 63 288 3.0 9.0 0.00 0.00 0.00 67 1021.5
20180527113754 63 34 3.0 8.0 0.00 0.00 0.00 67 1021.5
20180527113239 63 32 3.0 8.0 0.00 0.00 0.00 67 1021.5
20180527112743 63 48 3.0 8.0 0.00 0.00 0.00 67 1021.6
20180527112239 63 77 3.0 8.0 0.00 0.00 0.00 68 1021.6
20180527111742 63 36 3.0 8.0 0.00 0.00 0.00 68 1021.6
20180527111246 63 25 4.0 8.0 0.00 0.00 0.00 68 1021.5
20180527110743 63 80 3.0 8.0 0.00 0.00 0.00 69 1021.5
20180527110227 62 10 2.0 8.0 0.00 0.00 0.00 69 1021.5
20180527105720 62 39 1.0 5.0 0.00 0.00 0.00 69 1021.6
20180527105222 62 3 1.0 5.0 0.00 0.00 0.00 69 1021.6
20180527104708 63 28 2.0 5.0 0.00 0.00 0.00 69 1021.5
20180527104213 63 29 2.0 5.0 0.00 0.00 0.00 69 1021.6
20180527103709 63 3 2.0 7.0 0.00 0.00 0.00 69 1021.6
20180527103159 63 45 2.0 7.0 0.00 0.00 0.00 69 1021.6
20180527102645 63 19 3.0 7.0 0.00 0.00 0.00 69 1021.6
20180527102131 63 358 2.0 7.0 0.00 0.00 0.00 69 1021.6
20180527101618 63 5 3.0 7.0 0.00 0.00 0.00 69 1021.7
20180527101123 63 34 3.0 7.0 0.00 0.00 0.00 69 1021.6
20180527100625 63 24 2.0 6.0 0.00 0.00 0.00 69 1021.6
20180527100126 63 48 2.0 6.0 0.00 0.00 0.00 69 1021.6
20180527095632 63 66 2.0 6.0 0.00 0.00 0.00 69 1021.6
20180527095140 63 357 1.0 6.0 0.00 0.00 0.00 69 1021.6
20180527094644 63 59 2.0 6.0 0.00 0.00 0.00 69 1021.6
20180527094136 63 14 2.0 5.0 0.00 0.00 0.00 69 1021.7
20180527093642 63 27 2.0 5.0 0.00 0.00 0.00 69 1021.7
20180527093138 63 349 1.0 5.0 0.00 0.00 0.00 69 1021.7
20180527092643 63 0 1.0 5.0 0.00 0.00 0.00 69 1021.6
20180527092130 63 24 2.0 10.0 0.00 0.00 0.00 69 1021.7
20180527091613 63 348 2.0 10.0 0.00 0.00 0.00 68 1021.6
20180527091102 63 53 3.0 10.0 0.00 0.00 0.00 68 1021.6
20180527090608 63 49 3.0 10.0 0.00 0.00 0.00 68 1021.6
20180527090101 64 32 2.0 8.0 0.00 0.00 0.00 68 1021.6
20180527085547 64 10 3.0 8.0 0.00 0.00 0.00 68 1021.7
20180527085055 64 10 3.0 8.0 0.00 0.00 0.00 68 1021.6
20180527084537 64 67 3.0 7.0 0.00 0.00 0.00 68 1021.6
20180527084032 64 7 3.0 3.0 0.00 0.00 0.00 68 1021.5
20180527083650 64 73 3.0 9.0 0.00 0.00 0.00 68 1021.6
20180527083153 64 24 3.0 9.0 0.00 0.00 0.00 68 1021.6
20180527082648 64 87 2.0 9.0 0.00 0.00 0.00 68 1021.7
20180527082136 64 50 2.0 9.0 0.00 0.00 0.00 68 1021.6
20180527081634 64 39 2.0 9.0 0.00 0.00 0.00 68 1021.6
20180527081130 64 42 2.0 8.0 0.00 0.00 0.00 68 1021.6
20180527080627 64 84 2.0 6.0 0.00 0.00 0.00 68 1021.6
20180527080129 64 44 2.0 5.0 0.00 0.00 0.00 67 1021.6
20180527075636 64 64 2.0 5.0 0.00 0.00 0.00 67 1021.6
20180527075132 64 31 2.0 6.0 0.00 0.00 0.00 67 1021.5
20180527074626 65 28 2.0 6.0 0.00 0.00 0.00 66 1021.5
20180527074112 65 57 1.0 7.0 0.00 0.00 0.00 66 1021.5
20180527073616 65 39 1.0 7.0 0.00 0.00 0.00 66 1021.5
20180527073106 65 15 1.0 7.0 0.00 0.00 0.00 66 1021.6
20180527072615 65 344 1.0 7.0 0.00 0.00 0.00 65 1021.6
20180527072124 66 344 2.0 9.0 0.00 0.00 0.00 65 1021.5
20180527071611 66 1 3.0 9.0 0.00 0.00 0.00 64 1021.5
20180527071120 66 23 3.0 9.0 0.00 0.00 0.00 64 1021.3
20180527070624 66 46 3.0 9.0 0.00 0.00 0.00 63 1021.3
20180527070121 67 10 3.0 9.0 0.00 0.00 0.00 63 1021.3
20180527065614 67 73 3.0 9.0 0.00 0.00 0.00 62 1021.2
20180527065109 67 25 3.0 9.0 0.00 0.00 0.00 62 1021.3
20180527064559 67 10 3.0 9.0 0.00 0.00 0.00 61 1021.2
20180527064100 68 59 2.0 9.0 0.00 0.00 0.00 61 1021.2
20180527063553 68 357 2.0 12.0 0.00 0.00 0.00 60 1021.2
20180527063037 68 29 3.0 12.0 0.00 0.00 0.00 59 1021.2
20180527062538 69 342 4.0 12.0 0.00 0.00 0.00 59 1021.2
20180527062020 69 29 5.0 12.0 0.00 0.00 0.00 59 1021.2
20180527061525 69 323 5.0 12.0 0.00 0.00 0.00 58 1021.3
20180527061025 69 353 3.0 12.0 0.00 0.00 0.00 59 1021.1
20180527060517 69 18 3.0 14.0 0.00 0.00 0.00 59 1021.2
20180527060006 69 21 5.0 14.0 0.00 0.00 0.00 58 1021.2
20180527055448 69 101 5.0 14.0 0.00 0.00 0.00 57 1021.1
20180527054948 69 12 4.0 14.0 0.00 0.00 0.00 57 1021.2
20180527054435 69 309 3.0 12.0 0.00 0.00 0.00 58 1021.2
20180527053926 69 0 5.0 12.0 0.00 0.00 0.00 58 1021.1
20180527053429 68 347 4.0 12.0 0.00 0.00 0.00 59 1021.1
20180527052932 68 299 3.0 8.0 0.00 0.00 0.00 59 1021.1
20180527052420 68 1 3.0 12.0 0.00 0.00 0.00 59 1021.1
20180527051910 68 3 4.0 12.0 0.00 0.00 0.00 58 1021.1
20180527051416 68 0 5.0 13.0 0.00 0.00 0.00 58 1021.2
20180527050915 69 326 6.0 13.0 0.00 0.00 0.00 57 1021.2
20180527050419 69 54 6.0 13.0 0.00 0.00 0.00 58 1021.2
20180527045914 69 77 5.0 13.0 0.00 0.00 0.00 58 1021.2
20180527045354 69 36 5.0 12.0 0.00 0.00 0.00 58 1021.2
20180527044836 69 31 5.0 12.0 0.00 0.00 0.00 58 1021.3
20180527044328 69 55 4.0 13.0 0.00 0.00 0.00 57 1021.3
20180527043830 69 31 5.0 13.0 0.00 0.00 0.00 57 1021.2
20180527043334 69 42 6.0 13.0 0.00 0.00 0.00 56 1021.2
20180527042836 69 328 4.0 13.0 0.00 0.00 0.00 57 1021.3
20180527042343 69 24 3.0 11.0 0.00 0.00 0.00 57 1021.3
20180527041842 69 338 4.0 10.0 0.00 0.00 0.00 57 1021.4
20180527041331 69 3 3.0 10.0 0.00 0.00 0.00 57 1021.5
20180527040828 69 356 2.0 10.0 0.00 0.00 0.00 57 1021.5
20180527040331 69 333 4.0 10.0 0.00 0.00 0.00 56 1021.5
20180527035831 69 14 4.0 10.0 0.00 0.00 0.00 56 1021.6
20180527035323 69 330 3.0 10.0 0.00 0.00 0.00 57 1021.6
20180527034805 69 344 3.0 9.0 0.00 0.00 0.00 56 1021.7
20180527034252 69 3 3.0 11.0 0.00 0.00 0.00 56 1021.7
20180527033744 69 320 3.0 11.0 0.00 0.00 0.00 56 1021.7
20180527033253 69 344 4.0 11.0 0.00 0.00 0.00 56 1021.8
20180527032758 69 358 4.0 11.0 0.00 0.00 0.00 56 1021.9
20180527032246 69 4 4.0 10.0 0.00 0.00 0.00 56 1021.9
20180527031732 69 8 3.0 10.0 0.00 0.00 0.00 56 1021.9
20180527031217 69 57 4.0 12.0 0.00 0.00 0.00 56 1021.9
20180527030716 69 21 4.0 12.0 0.00 0.00 0.00 55 1021.9
20180527030202 69 26 4.0 12.0 0.00 0.00 0.00 55 1021.9
20180527025645 69 52 5.0 12.0 0.00 0.00 0.00 55 1021.9
20180527025150 69 348 5.0 10.0 0.00 0.00 0.00 55 1022.1
20180527024643 69 344 4.0 11.0 0.00 0.00 0.00 54 1022.1
20180527024145 69 319 4.0 11.0 0.00 0.00 0.00 54 1022.2
20180527023637 69 344 5.0 11.0 0.00 0.00 0.00 55 1022.3
20180527023129 69 333 5.0 11.0 0.00 0.00 0.00 54 1022.2
20180527022634 70 357 5.0 12.0 0.00 0.00 0.00 55 1022.3
20180527022122 70 339 5.0 12.0 0.00 0.00 0.00 54 1022.4
20180527021631 70 342 4.0 12.0 0.00 0.00 0.00 55 1022.3
20180527021113 70 43 5.0 12.0 0.00 0.00 0.00 55 1022.4
20180527020621 69 34 4.0 11.0 0.00 0.00 0.00 55 1022.5
20180527020105 69 356 4.0 11.0 0.00 0.00 0.00 55 1022.6
20180527015557 69 356 4.0 11.0 0.00 0.00 0.00 56 1022.7
20180527015038 69 57 3.0 11.0 0.00 0.00 0.00 57 1022.7
20180527014538 69 7 3.0 11.0 0.00 0.00 0.00 58 1022.7
20180527014026 69 17 4.0 10.0 0.00 0.00 0.00 59 1023.0
20180527013507 68 353 5.0 10.0 0.00 0.00 0.00 59 1022.9
20180527012958 68 348 4.0 10.0 0.00 0.00 0.00 60 1023.1
20180527012458 68 25 3.0 9.0 0.00 0.00 0.00 61 1023.1
20180527012000 67 68 4.0 9.0 0.00 0.00 0.00 62 1023.2
20180527011457 66 11 3.0 8.0 0.00 0.00 0.00 62 1023.2
20180527010937 66 8 2.0 8.0 0.00 0.00 0.00 64 1023.3
20180527010417 65 316 3.0 8.0 0.00 0.00 0.00 64 1023.5
20180527005906 65 46 2.0 8.0 0.00 0.00 0.00 64 1023.6
20180527005410 65 42 1.0 8.0 0.00 0.00 0.00 65 1023.7
20180527004916 65 25 1.0 8.0 0.00 0.00 0.00 66 1023.8
20180527004358 64 39 2.0 8.0 0.00 0.00 0.00 66 1023.8
20180527003901 64 63 2.0 8.0 0.00 0.00 0.00 65 1023.9
20180527003343 64 356 3.0 9.0 0.00 0.00 0.00 66 1023.9
20180527002834 64 354 3.0 9.0 0.00 0.00 0.00 66 1023.8
20180527002332 63 350 3.0 9.0 0.00 0.00 0.00 67 1023.8
20180527001828 63 43 3.0 9.0 0.00 0.00 0.00 68 1023.9
20180527001315 63 29 2.0 8.0 0.00 0.00 0.00 68 1023.9
20180527000801 62 344 3.0 8.0 0.00 0.00 0.00 69 1023.9
20180527000301 62 9 3.0 8.0 0.00 0.00 0.00 70 1023.9
20180526235801 62 329 2.0 8.0 0.00 0.00 0.00 72 1023.9
20180526235305 61 32 3.0 8.0 0.00 0.00 0.00 73 1023.8
20180526234757 60 74 3.0 8.0 0.00 0.00 0.00 73 1023.9
20180526234307 60 7 4.0 8.0 0.00 0.00 0.00 73 1023.8
20180526233754 60 77 4.0 7.0 0.00 0.00 0.00 74 1023.8
20180526233302 59 53 3.0 5.0 0.00 0.00 0.00 74 1023.9
20180526232931 59 327 3.0 8.0 0.00 0.00 0.00 74 1024.0
20180526232414 59 42 4.0 8.0 0.00 0.00 0.00 75 1024.0
20180526231919 59 12 3.0 8.0 0.00 0.00 0.00 75 1024.1
20180526231426 58 35 2.0 7.0 0.00 0.00 0.00 76 1024.1
20180526230935 58 36 2.0 7.0 0.00 0.00 0.00 77 1024.1
20180526230416 57 29 3.0 8.0 0.00 0.00 0.00 77 1024.1
20180526225923 57 358 3.0 8.0 0.00 0.00 0.00 78 1024.1
20180526225412 56 68 3.0 8.0 0.00 0.00 0.00 78 1024.0
20180526224913 56 18 3.0 8.0 0.00 0.00 0.00 79 1024.0
20180526224353 56 57 2.0 8.0 0.00 0.00 0.00 80 1024.1
20180526223841 55 45 2.0 8.0 0.00 0.00 0.00 81 1024.1
20180526223334 55 32 3.0 8.0 0.00 0.00 0.00 81 1024.0
20180526222824 54 59 3.0 8.0 0.00 0.00 0.00 82 1024.1
20180526222324 54 84 3.0 6.0 0.00 0.00 0.00 82 1024.2
20180526221811 54 36 2.0 8.0 0.00 0.00 0.00 83 1024.1
20180526221300 53 59 2.0 8.0 0.00 0.00 0.00 84 1024.1
20180526220747 53 344 3.0 8.0 0.00 0.00 0.00 84 1023.9
20180526220232 53 32 2.0 8.0 0.00 0.00 0.00 84 1023.9
20180526215716 52 27 2.0 7.0 0.00 0.00 0.00 85 1023.9
20180526215203 52 7 2.0 7.0 0.00 0.00 0.00 86 1023.9
20180526214657 52 80 2.0 7.0 0.00 0.00 0.00 86 1023.8
20180526214200 52 39 2.0 7.0 0.00 0.00 0.00 86 1023.8
20180526213649 51 39 2.0 6.0 0.00 0.00 0.00 86 1023.9
20180526213143 51 57 2.0 5.0 0.00 0.00 0.00 86 1023.8
20180526212649 51 48 2.0 5.0 0.00 0.00 0.00 86 1023.9
20180526212132 51 29 1.0 5.0 0.00 0.00 0.00 86 1023.8
20180526211630 51 60 1.0 5.0 0.00 0.00 0.00 86 1023.9
20180526211111 51 55 2.0 5.0 0.00 0.00 0.00 86 1023.8
20180526210600 51 39 1.0 5.0 0.00 0.00 0.00 86 1023.8
20180526210055 51 94 2.0 5.0 0.00 0.00 0.00 86 1023.8
20180526205551 51 62 2.0 5.0 0.00 0.00 0.00 86 1023.7
20180526205054 51 46 2.0 5.0 0.00 0.00 0.00 86 1023.5
20180526204603 51 102 2.0 6.0 0.00 0.00 0.00 86 1023.5
20180526204104 51 52 2.0 6.0 0.00 0.00 0.00 86 1023.5
20180526203551 51 55 2.0 6.0 0.00 0.00 0.00 86 1023.5
20180526203042 51 38 2.0 6.0 0.00 0.00 0.00 86 1023.3
20180526202551 51 52 2.0 6.0 0.00 0.00 0.00 86 1023.4
20180526202036 51 58 2.0 7.0 0.00 0.00 0.00 86 1023.4
20180526201523 51 57 2.0 7.0 0.00 0.00 0.00 87 1023.3
20180526201028 51 52 2.0 7.0 0.00 0.00 0.00 87 1023.3
20180526200527 51 10 2.0 7.0 0.00 0.00 0.00 87 1023.3
20180526200016 51 31 2.0 6.0 0.00 0.00 0.00 87 1023.2
20180526195502 51 41 2.0 5.0 0.00 0.00 0.00 88 1023.3
20180526194953 51 42 1.0 5.0 0.00 0.00 0.00 88 1023.3
20180526194439 51 76 1.0 5.0 0.00 0.00 0.00 89 1023.3
20180526193920 51 74 1.0 3.0 0.00 0.00 0.00 89 1023.2
20180526193430 50 56 1.0 3.0 0.00 0.00 0.00 89 1023.3
20180526192923 50 43 1.0 3.0 0.00 0.00 0.00 89 1023.2
20180526192426 50 53 1.0 3.0 0.00 0.00 0.00 89 1023.1
20180526191921 50 57 1.0 2.0 0.00 0.00 0.00 89 1023.2
20180526191431 50 64 1.0 2.0 0.00 0.00 0.00 89 1023.2
20180526190923 50 74 1.0 2.0 0.00 0.00 0.00 90 1023.2
20180526190410 50 58 1.0 3.0 0.00 0.00 0.00 90 1023.1
20180526185915 50 59 1.0 3.0 0.00 0.00 0.00 90 1023.1
20180526185419 50 43 1.0 3.0 0.00 0.00 0.00 90 1023.0
20180526184914 50 60 1.0 3.0 0.00 0.00 0.00 91 1023.0
20180526184420 49 56 0.0 2.0 0.00 0.00 0.00 91 1023.0
20180526183919 49 42 0.0 2.0 0.00 0.00 0.00 91 1023.1
20180526183405 49 36 0.0 2.0 0.00 0.00 0.00 91 1023.0
20180526182847 49 63 0.0 1.0 0.00 0.00 0.00 91 1023.1
20180526182345 49 30 0.0 1.0 0.00 0.00 0.00 91 1023.0
20180526181845 48 29 0.0 1.0 0.00 0.00 0.00 91 1023.0
20180526181329 48 30 0.0 0.0 0.00 0.00 0.00 91 1023.0
20180526180809 48 29 0.0 0.0 0.00 0.00 0.00 91 1022.9
20180526180318 48 29 0.0 0.0 0.00 0.00 0.00 91 1022.9
20180526175826 48 29 0.0 0.0 0.00 0.00 0.00 91 1022.9
20180526175313 48 29 0.0 0.0 0.00 0.00 0.00 90 1022.9
20180526174821 48 29 0.0 0.0 0.00 0.00 0.00 90 1022.9
20180526174325 48 29 0.0 0.0 0.00 0.00 0.00 90 1022.9
20180526173807 48 29 0.0 0.0 0.00 0.00 0.00 90 1022.9
20180526173257 48 29 0.0 0.0 0.00 0.00 0.00 90 1023.0
20180526172754 48 29 0.0 0.0 0.00 0.00 0.00 90 1023.0
20180526172300 48 29 0.0 0.0 0.00 0.00 0.00 89 1022.9
20180526171743 48 29 0.0 0.0 0.00 0.00 0.00 89 1022.9
20180526171225 48 29 0.0 0.0 0.00 0.00 0.00 89 1023.0
20180526170734 48 29 0.0 0.0 0.00 0.00 0.00 89 1023.1
20180526170217 48 29 0.0 0.0 0.00 0.00 0.00 89 1023.1
20180526165701 48 29 0.0 0.0 0.00 0.00 0.00 89 1023.1
20180526165200 48 29 0.0 0.0 0.00 0.00 0.00 88 1023.1
20180526164649 48 29 0.0 0.0 0.00 0.00 0.00 88 1023.2
20180526164149 48 29 0.0 0.0 0.00 0.00 0.00 88 1023.2
20180526163637 49 29 0.0 0.0 0.00 0.00 0.00 88 1023.2
20180526163129 49 29 0.0 0.0 0.00 0.00 0.00 88 1023.1
20180526162637 49 29 0.0 0.0 0.00 0.00 0.00 88 1023.1
20180526162126 49 29 0.0 0.0 0.00 0.00 0.00 87 1023.2
20180526161632 49 29 0.0 0.0 0.00 0.00 0.00 87 1023.2
20180526161122 49 29 0.0 0.0 0.00 0.00 0.00 87 1023.1
20180526160611 49 29 0.0 0.0 0.00 0.00 0.00 87 1023.1
20180526160058 49 29 0.0 0.0 0.00 0.00 0.00 86 1023.1
20180526155606 50 29 0.0 0.0 0.00 0.00 0.00 86 1023.1
20180526155115 50 29 0.0 0.0 0.00 0.00 0.00 86 1023.1
20180526154625 50 29 0.0 0.0 0.00 0.00 0.00 85 1023.2
20180526154118 50 29 0.0 0.0 0.00 0.00 0.00 85 1023.2
20180526153620 50 29 0.0 0.0 0.00 0.00 0.00 84 1023.1
20180526153107 50 29 0.0 0.0 0.00 0.00 0.00 84 1023.1
20180526152559 51 29 0.0 0.0 0.00 0.00 0.00 84 1023.2
20180526152105 51 29 0.0 0.0 0.00 0.00 0.00 84 1023.1
20180526151548 52 29 0.0 0.0 0.00 0.00 0.00 84 1023.2
20180526151031 52 29 0.0 0.0 0.00 0.00 0.00 83 1023.2
20180526150526 52 29 0.0 0.0 0.00 0.00 0.00 84 1023.3
20180526150026 53 29 0.0 0.0 0.00 0.00 0.00 84 1023.4
20180526145522 53 29 0.0 0.0 0.00 0.00 0.00 83 1023.5
20180526145032 53 29 0.0 0.0 0.00 0.00 0.00 83 1023.6
20180526144522 53 29 0.0 0.0 0.00 0.00 0.00 83 1023.6
20180526144017 53 29 0.0 0.0 0.00 0.00 0.00 82 1023.7
20180526143500 54 29 0.0 0.0 0.00 0.00 0.00 82 1023.8
20180526143002 54 29 0.0 1.0 0.00 0.00 0.00 82 1023.8
20180526142457 54 24 0.0 2.0 0.00 0.00 0.00 82 1023.9
20180526141940 54 34 0.0 2.0 0.00 0.00 0.00 82 1024.0
20180526141421 54 42 0.0 2.0 0.00 0.00 0.00 82 1024.0
20180526140925 54 36 0.0 2.0 0.00 0.00 0.00 82 1024.1
20180526140423 54 45 0.0 2.0 0.00 0.00 0.00 82 1024.2
20180526135932 54 37 0.0 2.0 0.00 0.00 0.00 82 1024.2